User: anonymous   Login
Location: Unspecified
(0.0000°N, 0.0000°E)
Time: 03:28:54
(UTC+00:00)
Language:

Hubble Space Telescope - Orbit

View from above orbital plane
View from above orbital plane
View from above satellite
View from above satellite

Ground track
Ground track

The orbit data is extracted from the following two-line orbital elements,

1 20580U 90037B   15208.50590015  .00000806  00000-0  40275-4 0  9991
2 20580 028.4693 248.2296 0002708 313.3772 205.0733 15.07577289185909
Epoch (UTC): 27 July 2015 12:08:29
Eccentricity: 0.0002708
inclination: 28.4693°
perigee height: 542 km
apogee height: 545 km
right ascension of ascending node: 248.2296°
argument of perigee: 313.3772°
revolutions per day: 15.07577289
mean anomaly at epoch: 205.0733°
orbit number at epoch: 18590

The dashed part of the orbit path shows where the satellite is in the earth's shadow,  

DLR